Regional Weather Roundup
Issued by NWS

Home | Current Version | Previous Version | Graphics & Text | Print | Product List | Glossary On
Versions: 1 2 3 4 5 6 7 8 9 10 11 12 13 14 15 16 17 18 19 20 21 22 23 24 25 26 27 28 29 30 31 32 33 34 35 36 37 38 39 40 41 42 43 44 45 46 47 48 49 50
000
ASUS43 KDMX 270108
RWRIA

WEATHER ROUNDUP FOR IOWA
NATIONAL WEATHER SERVICE DES MOINES IA
800 PM CDT TUE JUL 26 2016

NOTE: "FAIR" INDICATES FEW OR NO CLOUDS BELOW 12,000 FEET WITH NO
SIGNIFICANT WEATHER AND/OR OBSTRUCTIONS TO VISIBILITY.

* - THESE STATIONS ARE NOT NWS STATIONS...THUS NOT UNDER NWS
QUALITY CONTROL.  THEY ALSO DO NOT REPORT WEATHER SUCH
AS PRECIPITATION OR FOG.

IAZ001>003-012>014-020>022-031>034-043>046-270200-
   NORTHWEST IOWA

CITY           SKY/WX    TMP DP  RH WIND       PRES   REMARKS
CARROLL *      CLEAR     79  70  73 SE5       30.01S HX  81
CHEROKEE *     CLEAR     80  68  65 SE5       30.00S HX  83
DENISON *      CLEAR     79  70  73 CALM      29.99S HX  81
LE MARS *      CLEAR     82  68  61 SE6       30.00R HX  85
SHELDON *      CLEAR     79  72  78 SE7       29.98F HX  82
SIOUX CITY     CLEAR     83  66  56 SE8       29.98F HX  85
SPENCER        CLEAR     78  68  71 S8        30.01S HX  80
STORM LAKE *   CLEAR     77  70  78 SE6       30.03S
$$

IAZ055>058-069>071-079>083-090>094-270200-
   SOUTHWEST IOWA

CITY           SKY/WX    TMP DP  RH WIND       PRES   REMARKS
ATLANTIC *     CLEAR     81  68  65 E5        30.01S HX  83
CLARINDA *       N/A     81  70  69 MISG      30.02F HX  84
COUNCIL BLFS * CLEAR     81  72  74 SE3       30.00F HX  84
CRESTON *      MOCLDY    79  70  73 E6        30.04S HX  81
HARLAN  *      CLEAR     79  70  73 SE5       30.04S HX  81
LAMONI         CLEAR     79  68  69 NE5       30.03R HX  81
RED OAK *      CLEAR     79  68  69 SE3       30.01R HX  81
SHENANDOAH *   CLEAR     82  70  65 E3        30.01S HX  86
$$

IAZ047>049-059>061-072>074-084-270200-
   CENTRAL IOWA

CITY           SKY/WX    TMP DP  RH WIND       PRES   REMARKS
AMES           CLEAR     79  68  69 SE6       30.01F HX  81
ANKENY *         N/A    N/A N/A N/A MISG        N/A
BOONE *        CLEAR     79  70  73 SE7       30.01F HX  81
CHARITON *       N/A    N/A N/A N/A MISG        N/A
DES MOINES     PTCLDY    82  66  58 SE8       30.01S HX  84
GRINNELL*      CLEAR     79  65  61 E3        30.03F HX  81
KNOXVILLE *    CLEAR     79  66  65 CALM      30.01S HX  81
MARSHALLTOWN   CLEAR     79  69  71 E6        30.02F HX  81
NEWTON *       CLEAR     79  68  69 E3        30.02S HX  81
PELLA *        CLEAR     80  64  58 CALM      30.03S HX  81
PERRY *          N/A     79  70  73 E5        30.01F HX  81
$$

IAZ004>006-015-016-023>025-035-036-270200-
   NORTH CENTRAL IOWA

CITY           SKY/WX    TMP DP  RH WIND       PRES   REMARKS
ALGONA *       CLEAR     81  72  74 S3        30.02S HX  84
ESTHERVILLE    CLEAR     76  70  82 S7        30.00F
FORT DODGE *   CLEAR     79  66  65 SE5       30.02S HX  81
MASON CITY     CLEAR     79  69  71 SE7       30.03F HX  81
FOREST CITY *    N/A     79  70  73 SE5       30.01F HX  81
IOWA FALLS *     N/A     80  70  71 SE3       30.04S HX  83
$$

IAZ007>011-017>019-026>030-037>042-050>054-066-270200-
   NORTHEAST IOWA

CITY           SKY/WX    TMP DP  RH WIND       PRES   REMARKS
CEDAR RAPIDS   CLEAR     78  69  73 E6        30.02S HX  80
CHARLES CITY * CLEAR     79  73  83 CALM      30.03S HX  82
CLINTON *      CLEAR     80  69  69 NE3       30.03R HX  83
DECORAH *      CLEAR     79  70  73 CALM      30.01F HX  81
DUBUQUE        CLEAR     80  65  59 SE3       30.04S HX  82
MONTICELLO *   CLEAR     79  72  78 CALM      30.03S HX  82
OELWEIN *      CLEAR     79  72  78 S6        30.03F HX  82
WATERLOO       CLEAR     80  66  62 S6        30.01S HX  82
$$

IAZ064-065-067-068-078-270200-
   EAST CENTRAL IOWA

CITY           SKY/WX    TMP DP  RH WIND       PRES   REMARKS
DAVENPORT      PTCLDY    78  69  73 NE5       30.03R HX  80
IOWA CITY      PTCLDY    81  66  60 NE5       30.03S HX  83
MT. PLEASANT * CLEAR     81  72  74 NE3       30.02S HX  85
MUSCATINE *    MOCLDY    81  72  74 CALM      30.01F HX  84
QUAD CITIES    CLEAR     81  68  64 SE3       30.01R HX  84
$$

IAZ062-063-075>077-085>089-095>099-270200-
   SOUTHEAST IOWA

CITY           SKY/WX    TMP DP  RH WIND       PRES   REMARKS
BURLINGTON     CLEAR     80  69  69 CALM      30.01S HX  83
FAIRFIELD *    CLEAR     79  68  69 E3        30.02F HX  81
KEOKUK *       PTCLDY    82  68  61 CALM      30.01S HX  85
CENTERVILLE *    N/A     77  68  73 CALM      30.04F
OTTUMWA        CLEAR     79  67  66 E5        30.01S HX  81
WASHINGTON *   CLEAR     81  72  74 E3        30.03F HX  84
$$

ABBREVIATIONS USED IN REMARKS
   TC - TEMPERATURES IN CELSIUS
  WCI - WIND CHILL INDEX
   HX - HEAT INDEX
  VSB - VISIBILITY
$$





USA.gov is the U.S. government's official web portal to all federal, state and local government web resources and services.